Orbital Elements at Epoch 2459200.5 (2020-Dec-17.0) TDB
Reference: JPL 16 (heliocentric ecliptic J2000)
Element | Value | Uncertainty (1-sigma) | Units |
e | .03439611257402062 | 4.7026e-08 | |
a | 2.924504043753074 | 2.3531e-08 | au |
q | 2.823912473440965 | 1.4344e-07 | au |
i | 1.220910580485403 | 1.3378e-05 | deg |
node | 226.9190873965202 | 0.00045013 | deg |
peri | 227.0509988301247 | 0.00051224 | deg |
M | 294.1481428379242 | 0.00024398 | deg |
tp | 2459534.650636645209 (2021-Nov-16.15063665) | 0.0012383 | TDB |
period | 1826.740116018364 5.00 | 2.2048e-05 6.036e-08 | d yr |
n | .1970723677896068 | 2.3785e-09 | deg/d |
Q | 3.025095614065183 | 2.4341e-08 | au |
|
| | Orbit Determination Parameters
Additional Information
|